Location: Cassano d�Adda
(45.5333°N, 9.5167°E)
Time: 23:23:11
(UTC+00:00)

H-2A R/B - Pass Details

Date: 08 December 2019
Orbit: 501 x 541 km, 97.3° (Epoch: 17 January)

Event Time Altitude Azimuth Distance (km) Brightness Sun altitude
Rises 16:55:25 0° 172° (S) 2,607 6.4 -12.9°
Reaches altitude 10° 16:57:30 10° 175° (S) 1,721 5.5 -13.3°
Maximum altitude 17:01:12 68° 259° (W) 550 3.0 -13.9°
Drops below altitude 10° 17:04:53 10° 343° (NNW) 1,723 5.3 -14.5°
Sets 17:06:59 0° 346° (NNW) 2,610 6.2 -14.9°
